SCP
0 0 0 0 0 0 0 0 0 0 0 0 0 0 0 0 0 0 0 0 0 0 0 0 0 0 0 0 0 0 0 0 0 0 0 0 0 0 0 0 0 0 0 0
0 0 0 0 0 0 0 0 0 0 0 0 0 0 0 0 0 0 0 0 0 0 0 0 0 0 0 0 0 0 0 0 0 0 0 0 0 0 0 0 0 0 0 0
0 0 0 0 0 0 0 0 0 0 0 0 0 0 0 0 0 0 0 0 0 0 0 0 0 0 0 0 0 0 0 0 0 0 0 0 0 0 0 0 0 0 0 0
0 0 0 0 0 0 0 0 0 0 0 0 0 0 0 0 0 0 0 0 0 0 0 0 0 0 0 0 0 0 0 0 0 0 0 0 0 0 0 0 0 0 0 0
0 0 0 0 0 0 0 0 0 0 0 0 0 0 0 0 0 0 0 0 0 0 0 0 0 0 0 0 0 0 0 0 0 0 0 0 0 0 0 0 0 0 0 0
0 0 0 0 0 0 0 0 0 0 0 0 0 0 0 0 0 0 0 0 0 0 0 0 0 0 0 0 0 0 0 0 0 0 0 0 0 0 0 0 0 0 0 0
0 0 0 0 0 0 0 0 0 0 0 0 0 0 0 0 0 0 0 0 0 0 0 0 0 0 0 0 0 0 0 0 0 0 0 0 0 0 0 0 0 0 0 0
0 0 0 0 0 0 0 0 0 0 0 0 0 0 0 0 0 0 0 0 0 0 0 0 0 0 0 0 0 0 0 0 0 0 0 0 0 0 0 0 0 0 0 0
0 0 0 0 0 0 0 0 0 0 0 0 0 0 0 0 0 0 0 0 0 0 0 0 0 0 0 0 0 0 0 0 0 0 0 0 0 0 0 0 0 0 0 0
0 0 0 0 0 0 0 0 0 0 0 0 0 0 0 0 0 0 0 0 0 0 0 0 0 0 0 0 0 0 0 0 0 0 0 0 0 0 0 0 0 0 0 0
0 0 0 0 0 0 0 0 0 0 0 0 0 0 0 0 0 0 0 0 0 0 0 0 0 0 0 0 0 0 0 0 0 0 0 0 0 0 0 0 0 0 0 0
0 0 0 0 0 0 0 0 0 0 0 0 0 0 0 0 0 0 0 0 0 0 0 0 0 0 0 0 0 0 0 0 0 0 0 0 0 0 0 0 0 0 0 0
0 0 0 0 0 0 0 0 0 0 0 0 0 0 0 0 0 0 0 0 0 0 0 0 0 0 0 0 0 0 0 0 0 0 0 0 0 0 0 0 0 0 0 0
0 0 0 0 0 0 0 0 0 0 0 0 0 0 0 0 0 0 0 0 0 0 0 0 0 0 0 0 0 0 0 0 0 0 0 0 0 0 0 0 0 0 0 0
0 0 0 0 0 0 0 0 0 0 0 0 0 0 0 0 0 0 0 0 0 0 0 0 0 0 0 0 0 0 0 0 0 0 0 0 0 0 0 0 0 0 0 0
0 0 0 0 0 0 0 0 0 0 0 0 0 0 0 -0 -0 0 0 0 0 0 0 0 0 0 0 0 0 0 0 0 0 0 0 0 0 0 0 0 0 0 0 0
0 0 0 0 0 0 0 0 0 0 0 0 0 0 -0 -0 -0 -0 -0 -0 -0 -0 0 0 0 0 0 0 0 0 0 0 0 0 0 0 0 0 0 0 0 0 0 0
0 0 0 0 0 0 0 0 0 0 0 0 0 0 -0 -0 -0 -0 -0 -0 -0 -0 -0 0 0 0 0 0 0 0 0 0 0 0 0 0 0 0 0 0 0 0 0 0
0 0 0 0 0 0 0 0 0 0 0 0 0 0 -0 -0 -0 -0 -0 -0 -0 -0 -0 0 0 0 0 0 -0 0 0 0 0 0 0 0 0 0 0 0 0 0 0 0
0 0 0 0 0 0 0 0 0 0 0 0 0 -0 -0 -0 -0 -0 -0 -0 -0 -0 -0 0 0 0 0 -0 -0 -0 0 0 0 0 0 0 0 0 0 0 0 0 0 0
0 0 0 0 0 0 0 0 0 0 0 0 0 -0 -0 -0 -0 -0 -0 -0 -0 -0 -0 0 0 0 0 0 0 -0 0 0 0 0 0 0 0 0 0 0 0 0 0 0
0 0 0 0 0 0 0 0 0 0 0 0 0 -0 -0 -0 -0 -0 -0 -0 -0 -0 -0 0 0 0 0 0 0 0 0 0 0 0 0 0 0 0 0 0 0 0 0 0
0 0 0 0 0 0 0 0 0 0 0 0 0 -0 -0 -0 -0 -0 -0 -0 -0 -0 -0 0 0 0 0 0 0 0 0 0 0 0 0 0 0 0 0 0 0 0 0 0
0 0 0 0 0 0 0 0 0 0 0 0 0 -0 -0 -0 -0 -0 -0 -0 -0 -0 0 0 0 0 0 0 0 0 0 0 0 0 0 0 0 0 0 0 0 0 0 0
0 0 0 0 0 0 0 0 0 0 0 0 0 -0 -0 -0 -0 -0 -0 -0 -0 -0 0 0 0 0 0 0 0 0 0 0 0 0 0 0 0 0 -0 -0 -0 0 0 0
0 0 0 0 0 0 0 0 0 0 0 0 0 0 0 0 0 -0 -0 -0 -0 0 0 0 0 0 0 0 0 0 0 0 0 0 0 0 0 -0 -0 -0 -0 0 0 0
Wind_Speed
3 5 1 4 5 4 3 2 1 3 1 3 5 6 6 7 6 6 6 5 5 5 5 5 5 5 5 6 6 6 7 6 4 2 2 2 2 2 3 3 4 4 4 3
5 1 5 4 4 3 2 1 1 2 3 4 6 5 4 5 5 6 6 6 6 6 6 6 6 6 7 6 6 6 6 5 4 2 2 1 2 1 2 3 4 5 5 5
3 5 2 3 3 3 2 4 4 3 4 5 5 3 2 2 3 4 5 6 6 6 7 6 6 6 6 6 6 6 6 6 5 4 2 2 2 2 3 4 4 5 5 5
2 4 1 2 3 5 3 5 6 5 4 1 2 2 3 3 4 5 6 7 7 7 7 6 6 6 6 5 5 6 6 6 6 4 4 4 3 2 2 2 2 4 5 6
3 2 1 2 4 6 5 2 4 4 5 3 3 3 3 3 5 7 8 8 8 7 7 7 7 6 6 6 5 6 6 7 6 5 5 5 4 3 2 2 4 5 5 6
4 2 3 4 1 4 5 6 7 6 5 3 1 3 4 5 7 7 9 9 9 8 8 8 7 7 7 6 6 6 7 7 7 6 6 6 5 4 4 4 4 4 3 4
4 3 2 1 2 3 5 6 4 4 4 2 1 2 6 4 2 6 10 10 9 9 8 7 7 6 6 6 6 6 7 7 6 6 6 6 5 5 5 4 4 4 3 4
1 4 3 1 2 3 3 7 8 5 4 3 1 3 4 2 1 4 9 10 10 9 7 7 6 6 6 6 6 6 7 6 6 6 6 5 5 4 3 4 3 3 3 3
3 3 3 2 1 5 5 3 4 8 3 1 3 3 3 2 3 7 10 11 10 9 8 8 7 6 5 6 5 5 6 6 6 6 5 6 5 5 5 4 4 3 3 3
4 1 3 2 4 6 4 7 5 6 5 1 3 3 4 5 6 8 10 11 10 9 8 7 6 5 5 5 5 5 5 5 5 5 5 4 5 5 5 4 5 5 4 4
2 2 3 4 3 1 3 4 5 5 5 6 2 5 3 6 8 11 11 10 11 10 9 7 6 5 5 5 4 4 4 5 5 5 5 5 5 5 5 5 5 5 5 5
2 4 1 2 2 1 2 3 5 5 3 4 3 5 3 2 6 8 10 10 10 9 9 8 7 6 5 4 4 4 4 4 4 4 5 5 5 5 6 6 5 5 5 5
4 5 3 4 5 5 3 2 3 5 5 4 4 4 2 4 6 7 10 11 10 10 9 8 7 5 5 4 4 3 3 3 4 4 5 5 5 5 5 5 5 5 5 6
5 4 5 5 4 1 1 1 2 4 4 3 4 3 1 3 6 7 9 11 11 10 9 8 6 5 4 4 3 3 3 3 4 4 5 5 5 4 4 5 5 6 6 6
5 4 2 1 0 1 1 1 1 2 3 5 3 3 3 4 6 8 10 11 11 11 10 9 7 5 5 4 3 3 3 3 3 4 5 4 4 4 5 5 5 6 6 6
4 4 3 3 2 3 4 4 2 1 1 1 1 0 1 4 6 7 9 11 11 10 10 9 8 7 5 5 4 3 3 3 3 4 4 3 4 5 5 5 5 6 6 6
3 4 3 1 3 2 3 4 2 1 1 1 2 1 3 5 6 7 9 10 10 10 9 9 8 7 6 4 4 3 3 3 3 3 3 3 4 5 5 5 6 6 5 6
4 4 3 2 3 1 2 1 2 2 3 3 3 3 4 5 4 4 5 8 9 9 9 8 7 6 5 4 4 4 3 3 3 3 3 3 4 4 4 5 5 5 4 5
3 5 4 3 2 1 1 0 0 1 1 2 3 5 5 6 5 4 3 5 7 8 8 7 6 6 6 5 5 4 3 3 3 3 3 3 3 4 4 5 4 3 4 5
5 5 5 3 3 2 3 3 1 2 1 0 3 6 6 4 3 2 4 6 7 8 7 7 7 6 6 5 5 5 4 4 3 2 3 3 3 4 4 3 3 3 3 4
4 4 4 3 1 2 3 4 1 1 3 1 3 5 5 3 3 4 6 7 7 8 8 8 7 6 5 5 5 5 4 3 2 3 4 4 3 3 3 3 3 3 3 4
2 3 2 3 1 3 3 2 2 3 1 2 3 4 5 5 6 7 8 9 9 8 8 7 7 5 4 5 5 5 4 2 3 4 4 4 3 3 3 3 3 3 3 4
2 3 4 4 4 4 2 1 1 2 2 2 3 4 7 7 6 7 7 8 8 8 7 6 7 6 4 4 5 5 3 3 5 5 4 4 4 4 3 3 3 3 3 3
0 2 3 1 1 1 1 1 1 1 2 3 5 6 7 7 8 8 8 7 7 7 6 6 7 6 4 3 4 4 4 4 5 5 4 3 4 4 3 3 2 2 2 2
1 2 2 0 1 1 2 1 1 3 4 6 5 4 7 9 8 8 7 7 7 6 6 6 6 6 5 4 4 4 4 5 5 4 3 3 3 3 3 3 2 1 0 1
2 4 4 4 5 3 3 1 3 4 4 5 6 6 6 7 9 8 7 6 6 7 6 6 6 5 5 4 4 4 4 5 5 4 3 2 2 2 2 2 2 3 1 1
Wind_Direction
65 74 169 210 180 165 149 133 287 282 287 93 126 142 156 151 151 148 144 140 133 122 106 91 77 70 65 52 47 44 52 40 33 33 52 58 49 33 45 47 36 26 18 27
45 294 228 189 164 157 155 138 272 346 39 104 115 113 144 155 163 160 156 149 141 125 110 94 76 64 56 53 45 44 46 45 42 40 50 68 85 60 51 37 33 24 20 20
174 239 198 154 166 169 200 190 194 160 61 67 102 73 130 151 135 142 143 137 137 139 123 103 82 69 64 54 50 52 43 38 39 44 68 78 62 48 29 24 23 18 18 20
232 256 192 191 209 164 239 218 173 150 117 105 118 154 237 185 180 174 161 151 148 134 122 113 99 84 72 61 56 56 52 45 38 45 66 74 73 61 35 22 20 16 22 23
255 238 187 216 224 171 204 113 126 124 120 90 42 130 258 182 205 199 177 163 150 136 126 111 99 89 75 63 60 56 55 48 39 43 57 70 70 70 53 37 32 25 18 20
247 254 208 218 219 156 135 77 63 57 77 90 222 151 237 214 211 187 173 162 149 134 119 108 99 92 78 63 55 54 55 44 37 43 50 66 74 68 59 44 32 23 14 14
336 324 308 184 89 55 95 94 48 17 26 240 263 177 242 244 225 185 170 158 146 137 126 118 108 94 82 69 58 52 57 49 40 48 51 57 65 65 58 44 34 25 16 10
49 314 312 339 161 157 144 137 152 176 200 257 319 225 254 310 292 146 143 143 141 136 129 122 113 101 89 77 65 58 56 49 41 46 47 48 51 54 49 42 39 29 15 1
170 265 310 3 46 126 122 114 145 123 123 109 278 275 297 78 101 127 139 145 149 142 136 127 115 102 92 79 67 63 64 53 43 44 48 45 41 45 43 38 37 28 15 10
158 211 318 326 56 37 107 138 99 108 135 206 284 258 233 192 174 161 158 158 150 141 133 124 114 103 92 85 78 69 67 61 48 44 45 50 42 40 42 43 37 29 21 20
116 136 334 27 46 64 82 81 95 101 137 148 221 267 235 200 181 173 168 159 151 146 141 133 121 110 102 89 80 70 61 58 50 43 44 48 43 41 44 45 35 28 25 23
107 111 46 319 305 348 106 134 141 139 175 158 168 260 328 187 158 154 154 148 146 145 141 135 128 123 113 99 84 73 63 56 47 46 49 47 45 45 46 42 32 32 31 28
124 105 76 1 350 6 50 74 107 113 115 146 165 255 36 96 122 141 147 145 144 143 139 134 131 129 122 109 94 81 68 58 50 53 53 47 44 45 43 38 33 35 35 34
105 95 144 177 212 233 21 53 126 116 132 182 211 218 128 140 147 148 149 147 146 149 148 142 137 132 123 111 101 92 73 62 61 60 58 49 41 45 44 42 38 36 37 40
84 94 108 131 170 120 92 43 111 145 178 183 217 190 204 183 165 156 150 146 149 153 155 151 148 139 130 122 111 98 81 67 70 68 58 47 42 49 52 48 44 41 41 42
65 105 83 47 43 86 63 23 44 73 95 152 122 191 95 120 119 136 148 153 158 161 159 153 149 146 147 143 132 113 88 71 76 75 63 53 52 54 54 52 51 50 43 37
70 104 92 3 315 57 23 338 2 55 33 145 199 217 114 117 137 154 159 161 162 161 157 156 157 154 151 145 134 121 103 86 84 80 71 64 64 59 53 59 57 50 42 40
118 101 105 88 63 96 254 352 62 85 34 39 79 97 107 116 119 124 143 154 156 154 155 155 150 143 138 130 120 116 109 105 99 90 79 74 75 71 63 61 56 47 43 43
117 122 104 101 103 273 292 316 88 106 32 37 117 118 106 110 88 76 108 138 149 150 148 144 141 137 133 130 127 121 110 106 102 95 88 81 86 83 74 66 56 48 55 51
59 79 101 103 116 211 268 308 317 119 329 245 144 145 141 123 119 183 137 128 124 125 128 129 127 122 128 130 126 121 119 115 113 106 101 92 91 94 89 76 63 51 63 63
39 45 77 105 137 266 293 313 25 133 258 230 159 155 152 151 168 145 127 122 122 120 123 126 127 129 136 134 125 121 121 126 126 111 101 92 88 93 91 76 66 68 70 65
131 111 121 118 123 263 322 37 126 216 236 133 140 143 130 116 114 120 122 125 124 121 122 127 126 125 123 128 127 125 127 126 112 106 99 93 84 81 85 80 69 66 73 70
143 177 172 172 202 245 291 215 254 166 148 141 137 133 129 127 131 128 126 128 128 128 127 127 130 125 119 126 133 133 133 122 113 105 100 94 83 72 72 81 77 64 64 74
355 126 112 93 287 283 304 11 36 95 127 129 131 135 137 135 136 130 130 131 130 126 127 128 130 130 130 131 131 133 130 122 116 110 103 96 89 75 60 59 67 74 67 76
240 117 98 54 271 5 10 61 102 81 93 103 106 116 133 133 134 135 136 139 137 132 130 132 137 139 141 134 129 131 130 123 117 113 107 100 91 86 70 54 44 58 58 209
218 167 159 209 218 184 218 197 133 119 119 126 119 111 119 133 135 133 137 140 137 135 133 134 136 139 140 136 134 135 137 134 127 118 111 113 114 103 94 79 44 37 40 15